Kimball, NE

12:02 PM MDT on May 22, 2017 (GMT -0600)
Kimball Municipal-Arraj

Weather History for KIBM - March, 2014

Change the Weather History Date:

Thursday, March 27, 2014

  Actual Average (KSNY) Record (KSNY)
Temperature  
Mean Temperature 39 °F -  
Max Temperature 46 °F 53 °F 77 °F (1986)
Min Temperature 32 °F 26 °F -1 °F (1955)
Degree Days  
Heating Degree Days 26    
Moisture  
Dew Point 32 °F    
Average Humidity 80    
Maximum Humidity 96    
Minimum Humidity 54    
Precipitation  
Precipitation 0.02 in - - ()
Sea Level Pressure  
Sea Level Pressure 29.60 in    
Wind  
Wind Speed 10 mph (North)    
Max Wind Speed 20 mph    
Max Gust Speed 25 mph    
Visibility 8 miles    
Events Rain , Snow    
Averages and records for this station are not official NWS values.
T = Trace of Precipitation, MM = Missing Value Source: NWS Daily Summary

Daily Weather History Graph

Daily Weather History Graph

Search for Another Location

Airport or City:

Trip Planner

Search our weather history database for the weather conditions in past years. The results will help you decide how hot, cold, wet, or windy it might be!

Date:

Astronomy

Mar. 27, 2014 Rise Set
Actual Time 7:46 AM CDT 8:14 PM CDT
Civil Twilight 7:18 AM CDT 8:42 PM CDT
Nautical Twilight 6:46 AM CDT 9:14 PM CDT
Astronomical Twilight 6:12 AM CDT 9:48 PM CDT
Moon 5:41 AM CDT (3/27) 5:03 PM CDT (3/27)
Length of Visible Light 13h 23m
Length of Day
12h 28m
Waning Crescent, 13% of the Moon is Illuminated
Mar 27
Waning Crescent
Mar 30
New
Apr 7
First Quarter
Apr 15
Full
Apr 22
Last Quarter

Hourly Weather History & Observations

Time (CDT) Temp. Windchill Dew Point Humidity Pressure Visibility Wind Dir Wind Speed Gust Speed Precip Events Conditions
12:15 AM 44.6 °F 39.2 °F 34.5 °F 68% 29.40 in 10.0 mi NNW 10.4 mph - N/A   Overcast
12:35 AM 43.9 °F 41.3 °F 35.6 °F 73% 29.41 in 10.0 mi North 4.6 mph - N/A   Overcast
1:15 AM 43.5 °F 41.9 °F 34.9 °F 72% 29.40 in 10.0 mi NNW 3.5 mph - N/A Rain Light Rain
1:35 AM 42.8 °F 40.1 °F 36.3 °F 78% 29.40 in 10.0 mi NW 4.6 mph - N/A Rain Light Rain
1:55 AM 42.4 °F 39.6 °F 36.1 °F 78% 29.40 in 10.0 mi NW 4.6 mph - N/A Rain Light Rain
2:15 AM 41.4 °F 36.8 °F 36.5 °F 83% 29.39 in 10.0 mi NNE 6.9 mph - N/A Rain Light Rain
2:35 AM 39.7 °F 32.3 °F 33.1 °F 77% 29.39 in 10.0 mi North 12.7 mph - 0.01 in   Mostly Cloudy
2:55 AM 38.5 °F 31.1 °F 33.1 °F 81% 29.40 in 10.0 mi North 11.5 mph - 0.01 in   Scattered Clouds
3:15 AM 37.8 °F 28.6 °F 32.4 °F 81% 29.41 in 10.0 mi NNE 16.1 mph - N/A   Overcast
3:35 AM 37.4 °F 29.3 °F 32.0 °F 81% 29.41 in 10.0 mi NNE 12.7 mph - N/A   Overcast
3:55 AM 36.5 °F 29.2 °F 31.8 °F 83% 29.42 in 10.0 mi NNE 10.4 mph - N/A   Overcast
4:15 AM 36.0 °F 27.5 °F 31.1 °F 82% 29.42 in 10.0 mi North 12.7 mph - N/A   Overcast
4:35 AM 35.1 °F 24.8 °F 28.9 °F 78% 29.43 in 10.0 mi North 17.3 mph - N/A   Overcast
4:55 AM 34.0 °F 23.4 °F 28.2 °F 79% 29.42 in 10.0 mi NNE 17.3 mph - N/A   Overcast
5:15 AM 33.8 °F 23.9 °F 28.0 °F 79% 29.46 in 10.0 mi NNW 15.0 mph - N/A   Overcast
5:35 AM 33.6 °F 26.8 °F 28.9 °F 83% 29.47 in 10.0 mi North 8.1 mph - N/A   Overcast
5:55 AM 33.8 °F 25.3 °F 30.0 °F 86% 29.48 in 5.0 mi NNW 11.5 mph - N/A Snow Snow
6:15 AM 32.9 °F 23.7 °F 30.9 °F 92% 29.49 in 2.5 mi NNW 12.7 mph - N/A Snow Light Snow
6:35 AM 32.5 °F 22.7 °F 30.4 °F 92% 29.50 in 5.0 mi North 13.8 mph - N/A Snow Light Snow
6:55 AM 32.2 °F 23.2 °F 30.4 °F 93% 29.51 in 2.0 mi North 11.5 mph - N/A Snow Light Snow
7:15 AM 32.0 °F 23.6 °F 30.4 °F 94% 29.53 in 1.2 mi NNW 10.4 mph - 0.01 in Snow Light Snow
7:35 AM 32.0 °F 23.6 °F 30.2 °F 93% 29.53 in 1.2 mi NNW 10.4 mph - 0.01 in Snow Light Snow
7:55 AM 32.0 °F 23.6 °F 30.2 °F 93% 29.54 in 4.0 mi NNW 10.4 mph - 0.01 in Snow Light Snow
8:15 AM 32.0 °F 24.2 °F 30.6 °F 94% 29.55 in 2.0 mi NNW 9.2 mph - N/A Snow Light Snow
8:35 AM 32.0 °F 24.2 °F 30.6 °F 94% 29.57 in 5.0 mi NNW 9.2 mph - N/A Snow Light Snow
8:55 AM 32.4 °F 24.0 °F 30.9 °F 94% 29.57 in 3.0 mi NNW 10.4 mph - N/A Snow Light Snow
9:15 AM 32.5 °F 24.2 °F 30.9 °F 94% 29.57 in 5.0 mi NNW 10.4 mph - N/A Snow Light Snow
9:35 AM 32.9 °F 21.3 °F 30.2 °F 90% 29.57 in 10.0 mi NNW 19.6 mph 25.3 mph N/A   Overcast
9:55 AM 33.1 °F 21.5 °F 30.4 °F 90% 29.58 in 10.0 mi NNW 19.6 mph 24.2 mph N/A   Overcast
10:15 AM 33.8 °F 23.5 °F 30.9 °F 89% 29.60 in 10.0 mi NNW 16.1 mph 21.9 mph N/A   Overcast
10:35 AM 34.0 °F 23.4 °F 30.9 °F 89% 29.60 in 10.0 mi NNW 17.3 mph - N/A   Overcast
10:55 AM 34.7 °F 24.0 °F 31.3 °F 87% 29.60 in 10.0 mi NNW 18.4 mph - N/A   Overcast
11:15 AM 35.4 °F 25.3 °F 31.5 °F 85% 29.61 in 10.0 mi NNW 17.3 mph - N/A   Overcast
11:35 AM 36.0 °F 27.1 °F 32.2 °F 86% 29.62 in 10.0 mi North 13.8 mph - N/A   Overcast
11:55 AM 37.4 °F 28.5 °F 33.1 °F 84% 29.62 in 10.0 mi North 15.0 mph - N/A   Overcast
12:15 PM 37.4 °F 29.8 °F 32.4 °F 82% 29.64 in 10.0 mi North 11.5 mph - N/A   Overcast
12:35 PM 38.1 °F 31.7 °F 32.9 °F 81% 29.64 in 10.0 mi North 9.2 mph - N/A   Overcast
12:55 PM 38.5 °F 32.7 °F 32.5 °F 79% 29.65 in 10.0 mi North 8.1 mph - N/A   Overcast
1:15 PM 39.4 °F 33.2 °F 33.1 °F 78% 29.65 in 10.0 mi NNE 9.2 mph - N/A   Overcast
1:35 PM 40.3 °F 34.4 °F 32.9 °F 75% 29.65 in 10.0 mi North 9.2 mph - N/A   Mostly Cloudy
1:55 PM 41.0 °F 34.3 °F 32.2 °F 71% 29.66 in 10.0 mi North 11.5 mph - N/A   Scattered Clouds
2:15 PM 41.7 °F 34.8 °F 32.5 °F 70% 29.66 in 10.0 mi North 12.7 mph 18.4 mph N/A   Scattered Clouds
2:35 PM 44.4 °F 36.9 °F 32.7 °F 64% 29.66 in 10.0 mi North 17.3 mph - N/A   Clear
2:55 PM 44.2 °F 37.0 °F 32.2 °F 63% 29.67 in 10.0 mi North 16.1 mph 25.3 mph N/A   Scattered Clouds
3:15 PM 44.2 °F 37.0 °F 32.0 °F 62% 29.66 in 10.0 mi NNW 16.1 mph 20.7 mph N/A   Clear
3:35 PM 44.6 °F 38.4 °F 31.5 °F 60% 29.66 in 10.0 mi North 12.7 mph 19.6 mph N/A   Clear
3:55 PM 45.0 °F 38.2 °F 31.3 °F 59% 29.65 in 10.0 mi NNE 15.0 mph 19.6 mph N/A   Clear
4:15 PM 45.9 °F 38.8 °F 32.0 °F 58% 29.65 in 10.0 mi North 17.3 mph 21.9 mph N/A   Clear
4:35 PM 46.8 °F - 30.9 °F 54% 29.65 in 10.0 mi North 15.0 mph 19.6 mph N/A   Clear
4:55 PM 44.8 °F 39.4 °F 32.0 °F 61% 29.65 in 10.0 mi NE 10.4 mph 19.6 mph N/A   Clear
5:15 PM 45.1 °F 38.4 °F 32.9 °F 62% 29.66 in 10.0 mi NNE 15.0 mph 19.6 mph N/A   Clear
5:35 PM 43.7 °F 38.1 °F 31.6 °F 63% 29.66 in 10.0 mi North 10.4 mph - N/A   Scattered Clouds
5:55 PM 41.9 °F 35.0 °F 31.8 °F 67% 29.67 in 10.0 mi NNE 12.7 mph - N/A   Clear
6:15 PM 43.3 °F 36.8 °F 31.8 °F 64% 29.67 in 10.0 mi North 12.7 mph - N/A   Clear
6:35 PM 41.9 °F 35.9 °F 31.8 °F 67% 29.68 in 10.0 mi NE 10.4 mph - N/A   Scattered Clouds
7:15 PM 39.2 °F 32.5 °F 30.9 °F 72% 29.70 in 10.0 mi ENE 10.4 mph - N/A   Clear
7:55 PM 38.3 °F 33.2 °F 31.1 °F 75% 29.72 in 10.0 mi East 6.9 mph - N/A   Scattered Clouds
8:15 PM 37.2 °F 33.6 °F 30.9 °F 78% 29.73 in 10.0 mi East 4.6 mph - N/A   Scattered Clouds
8:35 PM 36.0 °F 30.3 °F 30.9 °F 82% 29.73 in 10.0 mi East 6.9 mph - N/A   Clear
8:55 PM 35.6 °F 30.7 °F 30.9 °F 83% 29.75 in 10.0 mi East 5.8 mph - N/A   Clear
9:15 PM 35.6 °F - 31.1 °F 84% 29.77 in 10.0 mi Calm Calm - N/A   Mostly Cloudy
9:35 PM 36.5 °F - 31.5 °F 82% 29.77 in 10.0 mi Calm Calm - N/A   Overcast
9:55 PM 36.7 °F - 31.5 °F 81% 29.79 in 10.0 mi Calm Calm - N/A   Overcast
10:15 PM 37.4 °F 32.8 °F 32.0 °F 81% 29.82 in 10.0 mi West 5.8 mph - N/A Rain Rain
10:35 PM 33.8 °F 29.6 °F 31.6 °F 92% 29.82 in 1.8 mi SW 4.6 mph - N/A Snow Light Snow
10:55 PM 33.1 °F 27.7 °F 31.6 °F 94% 29.81 in 2.0 mi South 5.8 mph - N/A Snow Light Snow
11:15 PM 33.1 °F 26.1 °F 32.0 °F 96% 29.81 in 4.0 mi SSE 8.1 mph - N/A Snow Light Snow
11:35 PM 33.1 °F 25.5 °F 32.0 °F 96% 29.81 in 4.0 mi SSE 9.2 mph - N/A   Scattered Clouds
11:55 PM 33.3 °F 25.1 °F 32.0 °F 95% 29.81 in 5.0 mi South 10.4 mph - N/A   Mostly Cloudy